Date,TemperatureHighF,TemperatureAvgF,TemperatureLowF,DewpointHighF,DewpointAvgF,DewpointLowF,HumidityHigh,HumidityAvg,HumidityLow,PressureMaxIn,PressureMinIn,WindSpeedMaxMPH,WindSpeedAvgMPH,GustSpeedMaxMPH,PrecipitationSumIn
2013-5-1,55.5,46.6,36.9,47.0,39.9,33.0,89,78,63,30.60,30.52,6,1,12,0.00
2013-5-2,62.7,55.1,46.2,47.0,40.0,31.0,84,58,36,30.51,30.39,11,2,12,0.00
2013-5-3,58.6,50.4,43.2,49.0,44.6,40.0,90,81,67,30.42,30.24,6,2,13,0.00
2013-5-4,83.8,68.0,47.7,49.0,40.6,31.0,91,44,16,30.24,29.95,11,1,12,0.00
2013-5-5,86.0,69.3,51.4,48.0,39.3,33.0,84,39,17,29.95,29.75,10,1,16,0.00
2013-5-6,58.6,53.4,49.1,51.0,48.9,46.0,91,85,76,30.03,29.90,8,2,15,0.00
2013-5-7,54.5,51.9,50.4,50.0,48.2,47.0,89,87,82,30.16,30.03,8,2,15,0.00
2013-5-8,53.7,51.6,50.1,49.0,48.1,47.0,91,88,83,30.29,30.16,5,1,8,0.00
2013-5-9,55.1,51.3,48.1,51.0,48.3,46.0,93,90,86,30.31,30.24,7,1,10,0.00
2013-5-10,52.4,49.6,47.3,50.0,47.9,46.0,96,93,90,30.34,30.26,6,1,7,0.00
2013-5-11,62.9,55.0,48.4,56.0,51.3,47.0,95,88,74,30.34,30.15,5,1,8,0.00
2013-5-12,60.5,57.4,54.7,55.0,53.9,53.0,95,88,80,30.25,30.17,8,1,10,0.05
2013-5-13,57.0,53.5,48.7,54.0,51.4,47.0,96,92,81,30.32,30.14,9,2,14,0.07
2013-5-14,55.6,50.3,44.8,49.0,45.7,43.0,95,85,71,30.33,30.23,7,1,11,0.00
2013-5-15,56.5,51.2,45.6,52.0,47.5,40.0,92,87,81,30.23,30.10,3,0,8,0.04
2013-5-16,57.7,53.7,50.1,52.0,50.3,47.0,94,88,79,30.10,30.04,9,1,11,0.03
2013-5-17,56.6,52.3,48.4,52.0,49.1,47.0,96,89,79,30.20,30.09,10,2,15,0.09
2013-5-18,56.0,52.5,49.0,54.0,50.4,47.0,96,92,86,30.39,30.19,4,1,13,0.12
2013-5-19,54.9,52.0,46.1,51.0,47.6,44.0,96,85,74,30.55,30.40,12,3,19,0.00
2013-5-20,55.4,49.6,43.4,49.0,45.9,42.0,95,87,78,30.47,30.07,7,2,13,0.04
2013-5-21,48.7,46.1,43.2,46.0,44.0,40.0,95,92,80,30.09,29.98,11,2,21,0.70
2013-5-22,49.9,46.6,43.1,48.0,45.2,42.0,96,94,93,30.08,30.02,7,2,16,0.49
2013-5-23,51.2,48.5,47.0,48.0,47.1,46.0,96,94,87,30.10,30.05,14,2,18,0.27
2013-5-24,52.8,49.5,46.8,50.0,48.0,46.0,96,94,89,30.19,30.07,9,2,13,0.00
2013-5-25,56.8,51.6,47.4,51.0,48.3,46.0,96,88,74,30.17,30.03,7,2,12,0.00
2013-5-26,56.1,52.6,50.2,51.0,49.8,48.0,96,90,79,30.15,30.02,8,2,15,0.00
2013-5-27,55.0,52.6,50.6,54.0,50.9,49.0,95,94,91,30.05,29.81,8,2,21,0.00
2013-5-28,56.7,52.1,49.5,52.0,49.1,48.0,96,90,74,30.05,29.82,10,2,19,0.00
2013-5-29,56.4,51.6,48.6,52.0,49.8,47.0,96,93,85,30.17,29.70,11,4,19,0.00
2013-5-30,57.0,51.5,47.8,53.0,48.5,46.0,97,90,74,30.37,30.16,9,1,14,0.00
2013-5-31,58.1,52.4,46.5,52.0,49.0,46.0,96,88,78,30.43,30.35,8,2,13,0.00